205  
ASUS43 KIND 270209  
RWRIN  
 
WEATHER ROUNDUP FOR INDIANA  
NATIONAL WEATHER SERVICE INDIANAPOLIS IN  
1000 PM EDT FRI MAY 26 2017  
 
NOTE: "FAIR" INDICATES FEW OR NO CLOUDS BELOW 12,000 FEET WITH NO  
SIGNIFICANT WEATHER AND/OR S TO VISIBILITY
.  
 
* - STATION DOES NOT REPORT WEATHER SUCH AS PRECIPITATION OR FOG.
 
 
+ - STATION NOT QUALITY CONTROLLED BY THE NATIONAL WEATHER SERVICE.  
USE DATA WITH CAUTION...ESPECIALLY DEWPOINT AND RELATIVE  
HUMIDITY OBSERVATIONS.  
 
INZ001>003-010>013-019-020-270300-  
NORTHWEST INDIANA  
 
CITY SKY/WX TMP DP RH WIND PRES REMARKS
 
GARY /AIRPORT/ CLOUDY 57 54 88 E14 29.83S  
KNOX *+ CLOUDY 61 55 82 NE7 29.82R  
LA PORTE + CLOUDY 60 59 94 NE9 29.83F  
MICHIGAN CITY+ CLOUDY 59 59 100 NE6 29.83S  
MONTICELLO + RAIN 65 63 95 CALM 29.78R  
RENSSELAER + CLOUDY 64 61 88 E8 29.79F  
VALPARAISO CLOUDY 63 61 93 NE9 29.82S  
 

 
 
LMZ046-743>745-270300-  
SOUTHERN LAKE MICHIGAN  
 
STATION/POSITION TIME TEMP WIND PRES WAVE
 
AIR SEA DIR/SP/G HT  
(UTC) (F) (DEG/KT/KT) (MB) (FT)  
BURNS HARBOR 0140 56 70/ 17/ 21 1010.2F  
MICHIGAN CITY 0140 55 50/ 18/ 19 N/A  
5NW MICH CITY 0200 54 53 60/ 14/ 17 N/A 2  
 

 
 
INZ004-005-014>016-021>024-270300-  
NORTH CENTRAL INDIANA  
 
CITY SKY/WX TMP DP RH WIND PRES REMARKS
 
GOSHEN TSTM 61 58 90 N7 29.86R FOG  
LOGANSPORT + CLOUDY 64 63 94 S6 29.81R  
PERU/GRISSOM MOCLDY 67 67 100 S8 29.79R  
ROCHESTER + CLOUDY N/A N/A N/A NW12G23 29.83R  
SOUTH BEND LGT RAIN 59 59 100 NE6 29.85F  
WARSAW + HVY RAIN 61 59 94 N9 29.83R  
 

 
 
INZ006>009-017-018-025>027-270300-  
NORTHEAST INDIANA  
 
CITY SKY/WX TMP DP RH WIND PRES REMARKS
 
ANGOLA *+ CLOUDY 57 55 94 CALM 29.83S  
AUBURN + LGT RAIN 61 59 94 E6 29.84F  
FORT WAYNE CLOUDY 64 60 87 E9 29.82S  
HUNTINGTON + CLOUDY N/A N/A N/A E5 29.81R  
KENDALLVILLE + RAIN 60 59 95 E5 29.84R  
 

 
 
INZ028-029-035-036-043>045-051>053-270300-  
WEST CENTRAL INDIANA  
 
CITY SKY/WX TMP DP RH WIND PRES REMARKS
 
CRAWFORDSVL + LGT RAIN N/A N/A N/A NW5 29.81R  
GREENCASTLE + CLOUDY 68 63 83 CALM 29.82S  
LAFAYETTE CLOUDY 67 66 97 N6 29.79R  
TERRE HAUTE CLOUDY 73 60 63 S8 29.79F  
 

 
 
INZ030>032-037>040-046>048-054>057-064-065-270300-  
CENTRAL INDIANA  
 
CITY SKY/WX TMP DP RH WIND PRES REMARKS
 
CP ATTERBURY + CLOUDY 72 63 73 S7 29.83R  
COLUMBUS CLOUDY 73 59 60 S8 29.83R  
FISHERS *+ CLOUDY 64 64 100 SW3 29.84F  
FRANKFORT + MOCLDY 68 66 93 S5 29.82F  
GREENWOOD *+ CLOUDY 71 63 76 CALM 29.85R  
INDIANAPOLIS TSTM 68 65 90 E3 29.82S  
-EAGLE CREEK CLOUDY 67 65 93 E5 29.82F  
KOKOMO + CLOUDY 66 63 90 SE10 29.82R  
MARION + CLOUDY 66 63 88 S3 29.82R  
MT COMFORT *+ CLOUDY 66 64 94 SE9 29.84S  
SHELBYVILLE CLOUDY 74 62 66 NW7 29.86R THUNDER  
ZIONSVILLE + CLOUDY 65 64 94 S10 29.83F  
 

 
 
INZ033-034-041-042-049-050-058-059-270300-  
EAST CENTRAL INDIANA  
 
CITY SKY/WX TMP DP RH WIND PRES REMARKS
 
MUNCIE TSTM 68 63 84 SE16G26 29.79F  
RICHMOND + CLOUDY 68 61 77 SE9 29.84F  
 

 
 
INZ060-061-067>069-081>083-085>088-270300-  
SOUTHWEST INDIANA  
 
CITY SKY/WX TMP DP RH WIND PRES REMARKS
 
EVANSVILLE CLOUDY 76 64 66 SW14 29.83S  
HUNTINGBURG *+ CLOUDY 76 63 64 SW12G21 29.83R  
WASHINGTON + CLOUDY 76 61 59 SW12 29.82R  
 

 
 
INZ062-063-066-070>080-084-089>092-270300-  
SOUTH CENTRAL AND SOUTHEAST INDIANA  
 
CITY SKY/WX TMP DP RH WIND PRES REMARKS
 
BEDFORD + CLOUDY 75 59 57 S10G17 29.82S  
BLOOMINGTON CLOUDY 76 59 55 SW8 29.82R  
MADISON *+ CLOUDY 73 63 68 S5 29.87R  
NORTH VERNON + CLOUDY 73 63 68 S8 29.85R  
SEYMOUR + CLOUDY 75 63 64 S10 29.83R  
 

 
 
 
 
CLICK HERE TO GO TO PREVIOUS BULLETINS.

The Nexlab IN Page Main Text Page